Location: Gradaro
(45.0833°N, 10.8833°E)
Time: 23:09:16
(UTC+00:00)

FENGYUN 1C DEB - Pass Details

Date: 26 June 2021
Orbit: 744 x 851 km, 99.4° (Epoch: 27 July)

Event Time Altitude Azimuth Distance (km) Brightness Sun altitude
Exits shadow 01:20:00 13° 256° (WSW) 2,229 ? -16.2°
Maximum altitude 01:21:09 14° 270° (W) 2,174 ? -16.1°
Drops below altitude 10° 01:23:45 10° 300° (WNW) 2,409 ? -15.9°
Sets 01:27:23 0° 326° (NW) 3,322 ? -15.6°
